Fort Riley, KS

5:31 PM CDT on August 24, 2016 (GMT -0500)
Marshall Army Air Field

Weather History for KFRI - September, 2013

Change the Weather History Date:

Saturday, September 14, 2013

  Actual Average (KMHK) Record (KMHK)
Temperature  
Mean Temperature 68 °F 69 °F  
Max Temperature 81 °F 82 °F 93 °F (2004)
Min Temperature 55 °F 56 °F 43 °F (1999)
Degree Days  
Heating Degree Days 0 2  
Month to date heating degree days 10  
Since 1 July heating degree days 13  
Cooling Degree Days 3 5  
Month to date cooling degree days 98  
Year to date cooling degree days 1281  
Growing Degree Days 18 (Base 50)    
Moisture  
Dew Point 55 °F    
Average Humidity 62    
Maximum Humidity 93    
Minimum Humidity 41    
Precipitation  
Precipitation 0.00 in 0.09 in 1.10 in (2002)
Month to date precipitation 1.75  
Year to date precipitation 26.29  
Sea Level Pressure  
Sea Level Pressure 29.99 in    
Wind  
Wind Speed 6 mph (SE)    
Max Wind Speed 13 mph    
Max Gust Speed 21 mph    
Visibility 10 miles    
Events      
T = Trace of Precipitation, MM = Missing Value Source: NWS Daily Summary

Daily Weather History Graph

Daily Weather History Graph

Search for Another Location

Airport or City:

Trip Planner

Search our weather history database for the weather conditions in past years. The results will help you decide how hot, cold, wet, or windy it might be!

Date:

Astronomy

Sep. 14, 2013 Rise Set
Actual Time 7:07 AM CDT 7:36 PM CDT
Civil Twilight 6:40 AM CDT 8:03 PM CDT
Nautical Twilight 6:09 AM CDT 8:34 PM CDT
Astronomical Twilight 5:36 AM CDT 9:07 PM CDT
Moon 4:17 PM CDT (9/14) 1:42 AM CDT (9/14)
Length of Visible Light 13h 22m
Length of Day
12h 28m
Waxing Gibbous, 72% of the Moon is Illuminated
Sep 14
Waxing Gibbous
Sep 19
Full
Sep 26
Last Quarter
Oct 4
New
Oct 11
First Quarter

Hourly Weather History & Observations

Time (CDT) Temp. Heat Index Dew Point Humidity Pressure Visibility Wind Dir Wind Speed Gust Speed Precip Events Conditions
12:58 AM 60.6 °F - 50.5 °F 69% 30.06 in 10.0 mi ESE 3.5 mph - N/A   Mostly Cloudy
1:58 AM 55.2 °F - 53.2 °F 93% 30.06 in 10.0 mi NE 2.3 mph - N/A   Clear
2:58 AM 55.8 °F - 53.2 °F 91% 30.06 in 10.0 mi Calm Calm - N/A   Clear
3:58 AM 57.0 °F - 51.3 °F 81% 30.04 in 10.0 mi ENE 3.5 mph - N/A   Overcast
4:58 AM 55.8 °F - 52.3 °F 88% 30.04 in 10.0 mi Variable 3.5 mph - N/A   Partly Cloudy
5:58 AM 57.7 °F - 49.3 °F 73% 30.03 in 10.0 mi ESE 5.8 mph - N/A   Partly Cloudy
6:58 AM 57.0 °F - 50.4 °F 78% 30.06 in 10.0 mi Variable 1.2 mph - N/A   Scattered Clouds
7:58 AM 59.4 °F - 51.1 °F 74% 30.07 in 10.0 mi ESE 5.8 mph - N/A   Partly Cloudy
8:58 AM 64.0 °F - 52.0 °F 65% 30.06 in 10.0 mi SE 8.1 mph - N/A   Partly Cloudy
9:58 AM 67.6 °F - 53.4 °F 60% 30.06 in 10.0 mi SE 8.1 mph - N/A   Clear
10:58 AM 71.8 °F - 53.2 °F 52% 30.05 in 10.0 mi SE 12.7 mph - N/A   Clear
11:58 AM 75.0 °F - 55.2 °F 50% 30.03 in 10.0 mi South 12.7 mph 19.6 mph N/A   Clear
12:58 PM 78.1 °F - 55.2 °F 45% 30.00 in 10.0 mi SSE 12.7 mph - N/A   Partly Cloudy
1:58 PM 81.1 °F 80.9 °F 55.6 °F 41% 29.97 in 10.0 mi SE 10.4 mph - N/A   Clear
2:58 PM 80.1 °F 80.3 °F 56.5 °F 44% 29.95 in 10.0 mi SSE 12.7 mph - N/A   Clear
3:58 PM 80.8 °F 81.0 °F 57.4 °F 45% 29.93 in 10.0 mi SSE 10.4 mph 17.3 mph N/A   Clear
4:58 PM 81.5 °F 81.8 °F 59.4 °F 47% 29.91 in 10.0 mi SSE 12.7 mph - N/A   Clear
5:58 PM 80.1 °F 80.9 °F 59.9 °F 50% 29.90 in 10.0 mi South 12.7 mph - N/A   Clear
6:58 PM 77.7 °F - 59.9 °F 54% 29.89 in 10.0 mi SE 10.4 mph - N/A   Clear
7:58 PM 75.7 °F - 58.8 °F 56% 29.89 in 10.0 mi SSE 10.4 mph - N/A   Clear
8:58 PM 74.8 °F - 58.8 °F 57% 29.89 in 10.0 mi SSE 9.2 mph - N/A   Scattered Clouds
9:58 PM 74.3 °F - 58.8 °F 58% 29.90 in 10.0 mi SSE 11.5 mph - N/A   Overcast
10:58 PM 72.9 °F - 59.4 °F 62% 29.89 in 10.0 mi SSE 10.4 mph 20.7 mph N/A   Partly Cloudy
11:58 PM 72.3 °F - 59.4 °F 64% 29.91 in 10.0 mi South 12.7 mph - N/A   Clear